Location: Mittersill
(44.1801°N, 71.7142°W)
Time: 13:29:21
(UTC+00:00)

Daily predictions for brighter satellites

Satellite Brightness Start Highest point End
(mag) Time Altitude Azimuth Time Altitude Azimuth Time Altitude Azimuth
NOAA 6 4.5 23:23:38 10° S 23:28:42 69° WSW 23:33:49 10° NNW
Cosmos 2360 Rocket 2.8 23:24:18 10° SW 23:29:54 65° WNW 23:35:32 10° NNE
CZ-2C R/B 4.4 23:28:56 10° SSW 23:32:11 35° W 23:35:26 10° NNW
USA 59 Rocket 1.4 23:29:23 10° N 23:32:28 23° NE 23:36:21 10° E
Cosmos 1626 1.5 23:30:54 10° N 23:33:55 89° S 23:36:53 10° S
Cosmos 1726 2.2 23:32:55 10° SSE 23:35:26 30° E 23:37:58 10° NNE
Cosmos 1340 2.3 23:35:35 10° S 23:38:46 55° E 23:41:58 10° NNE
Cosmos 1937 Rocket 3.5 23:34:02 10° NNW 23:39:20 83° ENE 23:44:38 10° SSE
Cosmos 372 Rocket 4.2 23:34:41 10° NNW 23:39:53 81° WSW 23:45:05 10° SSE
Cosmos 2322 Rocket 3.6 23:34:58 10° SW 23:40:24 44° WNW 23:45:52 10° NNE
Cosmos 2237 Rocket 3.7 23:37:58 10° SE 23:40:55 15° E 23:43:52 10° ENE
SJ-6B 2.9 23:39:00 10° SSE 23:42:30 48° ENE 23:46:00 10° N
Cosmos 841 Rocket 3.6 23:38:47 10° SSW 23:43:59 82° WNW 23:49:11 10° NNE
ATLAS CENTAUR R/B 3.5 23:39:44 10° WNW 23:44:36 57° SW 23:52:08 10° SSE
SeaSat 1 4.4 23:42:55 10° N 23:47:17 32° NW 23:51:36 10° WSW
Cosmos 2219 Rocket 2.3 23:43:34 10° SSW 23:49:15 85° WNW 23:54:58 10° NNE
ACS3 Solar Sail 3.0 23:44:28 10° ESE 23:49:31 26° ENE 23:54:35 10° N
Cosmos 44 Rocket 3.3 23:45:04 10° NNW 23:49:49 66° NE 23:54:26 10° SE
Cosmos 1328 Rocket 4.2 23:46:01 10° N 23:49:59 34° ENE 23:53:54 10° SE
Iridium 4 Rocket 3.1 23:46:19 10° N 23:50:24 50° E 23:54:26 10° SSE
NOSS 2-1 (C) 4.4 23:47:17 10° NNW 23:50:42 31° NE 23:54:37 12° ESE
Cosmos 1725 Rocket 4.4 23:46:11 10° SSW 23:52:19 69° W 23:58:30 10° N
CSL-04 Rocket 4.4 23:47:52 10° SE 23:52:35 33° ENE 23:57:17 10° N
Cosmos 1743 2.4 23:49:33 10° S 23:53:05 71° E 23:56:39 10° NNE
USA 308 2.2 23:53:38 10° N 23:54:21 15° NE 23:54:21 15° NE
Meteor PRIRODA 3.3 23:51:50 10° SSE 23:55:06 68° ENE 23:58:24 10° N
